EW3883 Weather Reports


time (UTC)temp
C
wind
direction
speed
KPH
gust
KPH
rain 1hr
cm
rain 24hr
cm
rain mn
cm
humidity
%
barometer
mb
20260503200535 18 0 0.0 4.8 0.00 0.00 0.00 46 1016.3
20260503200055 18 70 1.6 6.4 0.00 0.00 0.00 43 1016.4
20260503195538 18 138 1.6 6.4 0.00 0.00 0.00 44 1016.5
20260503195039 17 0 0.0 3.2 0.00 0.00 0.00 46 1016.5
20260503194601 17 75 0.0 4.8 0.00 0.00 0.00 48 1016.8
20260503194039 16 315 0.0 6.4 0.00 0.00 0.00 43 1017.0
20260503193539 17 85 0.0 6.4 0.00 0.00 0.00 44 1016.7
20260503193058 17 65 0.0 4.8 0.00 0.00 0.00 42 1017.3
20260503192541 17 0 0.0 4.8 0.00 0.00 0.00 42 1017.5
20260503192038 17 36 0.0 4.8 0.00 0.00 0.00 41 1017.6
20260503191549 17 24 0.0 8.0 0.00 0.00 0.00 46 1017.6
20260503191038 17 95 0.0 8.0 0.00 0.00 0.00 43 1017.7
20260503190538 18 116 1.6 8.0 0.00 0.00 0.00 42 1017.7
20260503190050 18 121 0.0 8.0 0.00 0.00 0.00 43 1017.8
20260503185537 18 132 0.0 8.0 0.00 0.00 0.00 49 1017.9
20260503185038 18 136 1.6 8.0 0.00 0.00 0.00 41 1017.9
20260503184601 18 0 0.0 6.4 0.00 0.00 0.00 44 1017.8
20260503184036 18 139 0.0 4.8 0.00 0.00 0.00 42 1018.1
20260503183538 17 113 0.0 4.8 0.00 0.00 0.00 43 1018.3
20260503183051 17 0 0.0 6.4 0.00 0.00 0.00 46 1018.2
20260503182538 17 0 0.0 9.7 0.00 0.00 0.00 44 1018.3
20260503182035 17 68 0.0 12.9 0.00 0.00 0.00 43 1018.3
20260503181607 17 49 1.6 12.9 0.00 0.00 0.00 43 1018.4
20260503181039 17 138 0.0 8.0 0.00 0.00 0.00 40 1018.5
20260503180539 18 58 1.6 6.4 0.00 0.00 0.00 42 1018.5
20260503180115 18 50 0.0 3.2 0.00 0.00 0.00 40 1018.6
20260503175538 19 120 0.0 4.8 0.00 0.00 0.00 44 1018.5
20260503175039 18 117 0.0 4.8 0.00 0.00 0.00 43 1018.6
20260503174556 18 74 1.6 4.8 0.00 0.00 0.00 44 1018.7
20260503174039 18 121 0.0 4.8 0.00 0.00 0.00 45 1018.8
20260503173539 18 133 0.0 8.0 0.00 0.00 0.00 41 1018.8
20260503173059 18 72 0.0 8.0 0.00 0.00 0.00 40 1018.9
20260503172540 18 125 0.0 8.0 0.00 0.00 0.00 42 1018.9
20260503172035 18 302 0.0 3.2 0.00 0.00 0.00 41 1019.0
20260503171548 18 90 0.0 4.8 0.00 0.00 0.00 47 1019.1
20260503171039 18 0 0.0 4.8 0.00 0.00 0.00 43 1019.4
20260503170539 18 123 0.0 4.8 0.00 0.00 0.00 43 1019.6
20260503150539 15 0 0.0 3.2 0.00 0.00 0.00 54 1020.9
20260503131037 8 0 0.0 1.6 0.00 0.00 0.00 77 1020.9
20260503130537 8 0 0.0 1.6 0.00 0.00 0.00 77 1020.9
20260503110541 1 0 0.0 0.0 0.00 0.00 0.00 90 1020.2
20260503081547 1 0 0.0 0.0 0.00 0.00 0.00 91 1019.5
20260503081036 1 0 0.0 0.0 0.00 0.00 0.00 91 1019.6
20260503080536 1 0 0.0 0.0 0.00 0.00 0.00 91 1019.5
20260503072541 2 0 0.0 0.0 0.00 0.00 0.00 91 1019.4
20260503072036 2 0 0.0 0.0 0.00 0.00 0.00 91 1019.5
20260503071546 2 0 0.0 0.0 0.00 0.00 0.00 91 1019.5
20260503071040 2 0 0.0 0.0 0.00 0.00 0.00 91 1019.4
20260503070536 2 0 0.0 0.0 0.00 0.00 0.00 90 1019.5
20260503055036 2 0 0.0 0.0 0.00 0.00 0.00 87 1020.0
20260503054550 2 0 0.0 0.0 0.00 0.00 0.00 86 1020.0
20260503054039 2 0 0.0 0.0 0.00 0.00 0.00 86 1019.9
20260503053537 2 0 0.0 0.0 0.00 0.00 0.00 86 1020.0
20260503053049 2 0 0.0 0.0 0.00 0.00 0.00 86 1019.9
20260503052537 2 0 0.0 0.0 0.00 0.00 0.00 85 1019.9
20260503052036 2 0 0.0 0.0 0.00 0.00 0.00 85 1019.9
20260503051544 3 0 0.0 0.0 0.00 0.00 0.00 85 1019.8
20260503051039 3 0 0.0 0.0 0.00 0.00 0.00 85 1019.8
20260503050537 3 0 0.0 0.0 0.00 0.00 0.00 84 1019.8
20260503050052 3 0 0.0 0.0 0.00 0.00 0.00 83 1019.8
20260503045539 3 0 0.0 0.0 0.00 0.00 0.00 83 1019.8
20260503045036 3 0 0.0 0.0 0.00 0.00 0.00 83 1019.8
20260503044547 3 0 0.0 0.0 0.00 0.00 0.00 82 1019.9
20260503044036 3 0 0.0 0.0 0.00 0.00 0.00 81 1019.9
20260503043536 3 0 0.0 0.0 0.00 0.00 0.00 81 1019.8
20260503043057 3 0 0.0 0.0 0.00 0.00 0.00 81 1019.8
20260503042536 3 0 0.0 0.0 0.00 0.00 0.00 80 1019.8
20260503042039 3 0 0.0 0.0 0.00 0.00 0.00 80 1019.9
20260503041550 3 0 0.0 0.0 0.00 0.00 0.00 79 1019.9
20260503041038 3 0 0.0 0.0 0.00 0.00 0.00 79 1019.8
20260503040538 3 0 0.0 0.0 0.00 0.00 0.00 79 1019.9
20260503040100 3 0 0.0 0.0 0.00 0.00 0.00 79 1020.0
20260503035536 3 0 0.0 0.0 0.00 0.00 0.00 78 1019.9
20260503035036 3 0 0.0 0.0 0.00 0.00 0.00 77 1019.9
20260503034552 3 0 0.0 0.0 0.00 0.00 0.00 76 1019.9
20260503034041 4 0 0.0 0.0 0.00 0.00 0.00 75 1020.1
20260503033535 4 0 0.0 0.0 0.00 0.00 0.00 75 1020.1
20260503033058 4 0 0.0 0.0 0.00 0.00 0.00 75 1020.1
20260503032539 4 0 0.0 0.0 0.00 0.00 0.00 74 1020.1
20260503032039 4 0 0.0 0.0 0.00 0.00 0.00 73 1020.1
20260503031552 4 0 0.0 0.0 0.00 0.00 0.00 72 1020.1
20260503031039 5 0 0.0 0.0 0.00 0.00 0.00 72 1020.1
20260503030539 5 0 0.0 0.0 0.00 0.00 0.00 72 1020.1
20260503030118 5 0 0.0 0.0 0.00 0.00 0.00 71 1020.1
20260503025543 5 0 0.0 0.0 0.00 0.00 0.00 71 1020.1
20260503025037 5 0 0.0 0.0 0.00 0.00 0.00 71 1020.0
20260503024550 5 0 0.0 0.0 0.00 0.00 0.00 70 1020.0
20260503024039 5 0 0.0 0.0 0.00 0.00 0.00 70 1020.1
20260503023537 5 0 0.0 0.0 0.00 0.00 0.00 69 1020.0
20260503023048 5 0 0.0 0.0 0.00 0.00 0.00 69 1020.0
20260503022535 5 0 0.0 0.0 0.00 0.00 0.00 68 1020.0
20260503022039 6 0 0.0 0.0 0.00 0.00 0.00 68 1019.9
20260503021550 6 0 0.0 0.0 0.00 0.00 0.00 68 1019.9
20260503021036 6 0 0.0 0.0 0.00 0.00 0.00 67 1019.8
20260503020540 6 0 0.0 0.0 0.00 0.00 0.00 68 1019.8
20260503020052 6 0 0.0 0.0 0.00 0.00 0.00 66 1019.7
20260503015539 6 0 0.0 0.0 0.00 0.00 0.00 66 1019.6
20260503015039 6 0 0.0 1.6 0.00 0.00 0.00 66 1019.7
20260503014603 6 0 0.0 1.6 0.00 0.00 0.00 65 1019.5
20260503014039 6 0 0.0 1.6 0.00 0.00 0.00 66 1019.5
20260503013536 6 0 0.0 1.6 0.00 0.00 0.00 65 1019.5
20260503013042 7 0 0.0 1.6 0.00 0.00 0.00 64 1019.4
20260503012539 7 0 0.0 1.6 0.00 0.00 0.00 64 1019.3
20260503012045 7 0 0.0 1.6 0.00 0.00 0.00 62 1019.3
20260503011557 7 0 0.0 1.6 0.00 0.00 0.00 61 1019.2
20260503011038 7 281 0.0 1.6 0.00 0.00 0.00 61 1019.1
20260503010539 7 0 0.0 1.6 0.00 0.00 0.00 60 1019.0
20260503010055 7 0 0.0 1.6 0.00 0.00 0.00 61 1019.1
20260503005540 8 0 0.0 3.2 0.00 0.00 0.00 60 1019.0
20260503005038 8 286 0.0 3.2 0.00 0.00 0.00 58 1018.9
20260503004546 8 278 0.0 3.2 0.00 0.00 0.00 58 1018.9
20260503004037 8 0 0.0 6.4 0.00 0.00 0.00 57 1018.9
20260503003537 8 285 0.0 6.4 0.00 0.00 0.00 57 1018.9
20260503003059 8 285 1.6 6.4 0.00 0.00 0.00 55 1018.8
20260503002540 8 278 0.0 3.2 0.00 0.00 0.00 55 1018.8
20260503002041 8 241 0.0 6.4 0.00 0.00 0.00 56 1018.7
20260503001551 9 0 0.0 6.4 0.00 0.00 0.00 54 1018.6
20260503001044 9 0 0.0 6.4 0.00 0.00 0.00 54 1018.5
20260503000536 9 0 0.0 6.4 0.00 0.00 0.00 54 1018.5
20260503000054 9 0 0.0 9.7 0.00 0.00 0.00 54 1018.4
20260502235539 10 289 1.6 9.7 0.00 0.00 0.00 53 1018.4
20260502235039 10 290 0.0 4.8 0.00 0.00 0.00 53 1018.3
20260502234549 10 340 0.0 6.4 0.00 0.00 0.00 53 1018.4
20260502234036 10 283 0.0 6.4 0.00 0.00 0.00 52 1018.2
20260502233536 10 281 1.6 4.8 0.00 0.00 0.00 51 1018.3
20260502233048 10 0 1.6 6.4 0.00 0.00 0.00 52 1018.2
20260502232539 10 271 0.0 6.4 0.00 0.00 0.00 51 1018.2
20260502232039 11 281 0.0 8.0 0.00 0.00 0.00 50 1018.1
20260502231550 11 0 1.6 8.0 0.00 0.00 0.00 51 1018.1
20260502231040 11 0 0.0 4.8 0.00 0.00 0.00 54 1018.1
20260502230541 11 0 0.0 4.8 0.00 0.00 0.00 51 1018.1
20260502230046 11 274 0.0 6.4 0.00 0.00 0.00 51 1018.1
20260502225539 11 0 1.6 6.4 0.00 0.00 0.00 50 1018.1
20260502225038 11 0 1.6 6.4 0.00 0.00 0.00 50 1018.1
20260502224544 11 272 1.6 8.0 0.00 0.00 0.00 50 1018.1
20260502224039 11 0 0.0 11.3 0.00 0.00 0.00 51 1018.0
20260502223543 11 342 1.6 11.3 0.00 0.00 0.00 50 1018.0
20260502223044 11 281 3.2 11.3 0.00 0.00 0.00 49 1018.1
20260502222538 11 264 0.0 6.4 0.00 0.00 0.00 49 1018.1
20260502222038 11 0 0.0 9.7 0.00 0.00 0.00 50 1018.0
20260502221549 11 137 0.0 9.7 0.00 0.00 0.00 50 1018.0
20260502221040 11 0 0.0 6.4 0.00 0.00 0.00 48 1018.0
20260502220537 11 0 0.0 6.4 0.00 0.00 0.00 50 1017.9
20260502220048 12 273 0.0 6.4 0.00 0.00 0.00 48 1017.9
20260502215539 12 92 1.6 6.4 0.00 0.00 0.00 50 1018.0
20260502215043 12 0 1.6 4.8 0.00 0.00 0.00 53 1018.0
20260502214552 11 273 0.0 4.8 0.00 0.00 0.00 51 1017.9
20260502214040 12 56 0.0 4.8 0.00 0.00 0.00 50 1017.8
20260502213539 12 0 1.6 9.7 0.00 0.00 0.00 50 1017.9
20260502213047 12 0 0.0 9.7 0.00 0.00 0.00 49 1017.8
20260502212539 12 283 0.0 9.7 0.00 0.00 0.00 47 1017.8
20260502212039 12 0 1.6 6.4 0.00 0.00 0.00 46 1017.8
20260502211553 12 0 1.6 6.4 0.00 0.00 0.00 47 1017.8
20260502211039 12 250 0.0 6.4 0.00 0.00 0.00 47 1017.8
20260502210538 12 276 0.0 11.3 0.00 0.00 0.00 46 1017.7
20260502210050 13 0 3.2 11.3 0.00 0.00 0.00 46 1017.7
20260502205542 13 274 0.0 9.7 0.00 0.00 0.00 47 1017.7
20260502205038 13 230 1.6 9.7 0.00 0.00 0.00 45 1017.6
20260502204602 13 0 0.0 6.4 0.00 0.00 0.00 47 1017.6
20260502204038 12 103 0.0 9.7 0.00 0.00 0.00 48 1017.7
20260502203537 12 27 1.6 9.7 0.00 0.00 0.00 48 1017.7
20260502203108 12 1 1.6 6.4 0.00 0.00 0.00 47 1017.8
20260502202542 12 317 1.6 4.8 0.00 0.00 0.00 47 1017.8
20260502202039 12 0 1.6 8.0 0.00 0.00 0.00 47 1017.8
20260502201545 13 279 3.2 8.0 0.00 0.00 0.00 43 1017.8
20260502201042 14 293 1.6 4.8 0.00 0.00 0.00 45 1017.9